Location: Claflin County Park
(44.8478°N, 87.5507°W)
Time: 03:12:51
(UTC+00:00)

USA 234 - Pass Details

Date: 12 March 2026
Orbit: 1102 x 1106 km, 123.0° (Epoch: 4 January)

Event Time Altitude Azimuth Distance (km) Brightness Sun altitude
Exits shadow 04:12:53 30° 293° (WNW) 1,856 4.7 -42.3°
Drops below altitude 10° 04:16:05 10° 304° (NW) 2,968 6.1 -42.6°
Sets 04:18:37 0° 308° (NW) 3,929 6.9 -42.9°
